Погода в Ярославской

Россия / Краснодарский край     44°36′43″N   40°27′42″E
темп.,
°C
ветер,
м/с
пор.,
м/с
влажн.,
%
обл.,
%
осадки,
мм/ч
давл.,
гПа
погр.,
м
17 мая, пн
пн1700:00+17ю328216 0.0 100227
03:00+15юз118675 0.0 100413
06:00+16юв1187100 0.0 100524
09:00+19в2271100 0.0 1006367
12:00+22св3468100 0.0 1007903
15:00+21св447280 0.2 10071041
18:00+15зсз4896100 8.0 1008451
21:00+14в1298100 17.0 1010132
18 мая, вт
вт1800:00+14ююз1198100 4.1 101042
03:00+13в0098100 6.6 101115
06:00+13вюв1197100 0.1 1011147
09:00+16св218578 0.2 1012533
12:00+18с227853 0.9 1011840
15:00+20св217013 1.7 1011957
18:00+18всв34864 0.9 1011325
21:00+14вюв369366 1.5 1011108
19 мая, ср
ср1900:00+13ю229333 0.0 100926
03:00+13ююз2289100 0.1 100935
06:00+12з369895 8.7 1010258
09:00+11з71595100 12.6 1013842
12:00+19з610535 1.8 10132131
15:00+20зюз711464 1.8 10132056
18:00+16з495917 0.0 1014427
21:00+11юз336412 0.0 101739
20 мая, чт
чт2000:00+9ю22640 0.0 101718
03:00+8ю225983 0.0 101712
06:00+9ююв22675 0.0 101737
09:00+16вюв355218 0.0 1016448
12:00+20в444999 0.0 1015986
15:00+21в4552100 0.0 10141015
18:00+19всв4876100 0.0 1013469
21:00+14вюв389170 0.0 1013145
21 мая, пт
пт2100:00+14ююв33860 0.0 101239
03:00+14ююв33520 0.0 101129
06:00+15ююв335537 0.0 101134
09:00+25вюв35480 0.0 1010230
12:00+28в58490 0.0 1009531
15:00+27в6106217 0.0 1009544
18:00+24вюв48799 0.0 1008275
21:00+20юв33880 0.0 100828